Weather History for Reno - Stead, NV

Change the Weather History Date:

Sunday, December 9, 2012

  Actual Average (KRNO) Record (KRNO)
Temperature  
Mean Temperature 33 °F 36 °F  
Max Temperature 42 °F 46 °F 65 °F (1939)
Min Temperature 24 °F 26 °F -16 °F (1972)
Degree Days  
Heating Degree Days 32 29  
Month to date heating degree days 255  
Since 1 July heating degree days 1358  
Cooling Degree Days 0 0  
Month to date cooling degree days 0  
Year to date cooling degree days 839  
Moisture  
Dew Point 23 °F    
Average Humidity 72    
Maximum Humidity 93    
Minimum Humidity 49    
Precipitation  
Precipitation 0.00 in 0.03 in 0.35 in (1909)
Month to date precipitation 0.28  
Year to date precipitation 6.65  
Snow  
Snow 0.00 in 0.10 in 2.50 in (1949)
Month to date snowfall 1.0  
Since 1 July snowfall 4.5  
Snow Depth -    
Sea Level Pressure  
Sea Level Pressure 30.32 in    
Wind  
Wind Speed 4 mph (NE)    
Max Wind Speed 10 mph    
Max Gust Speed -    
Visibility 10 miles    
Events      
T = Trace of Precipitation, MM = Missing Value Source: NWS Daily Summary

Daily Weather History Graph

Daily Weather History Graph

Search for Another Location

Airport:

Trip Planner

Search our weather history database for the weather conditions in past years. The results will help you decide how hot, cold, wet, or windy it might be!

Date:

Astronomy

Dec. 09, 2012 Rise Set
Actual Time 7:09 AM PST 4:35 PM PST
Civil Twilight 6:38 AM PST 5:05 PM PST
Nautical Twilight 6:05 AM PST 5:39 PM PST
Astronomical Twilight 5:32 AM PST 6:11 PM PST
Moon 2:48 AM PST (12/9) 1:44 PM PST (12/9)
Length of Visible Light 10h 26m
Length of Day
9h 26m
Waning Crescent, 17% of the Moon is Illuminated
Dec 9
Waning Crescent
Dec 13
New
Dec 19
First Quarter
Dec 28
Full
Jan 4
Last Quarter

Hourly Weather History & Observations

Time (PST) Temp. Windchill Dew Point Humidity Pressure Visibility Wind Dir Wind Speed Gust Speed Precip Events Conditions
12:15 AM 32.0 °F 25.6 °F 23.0 °F 69% 30.20 in 10.0 mi NNW 6.9 mph - N/A   Clear
12:35 AM 32.0 °F 23.6 °F 23.0 °F 69% 30.22 in 10.0 mi North 10.4 mph - N/A   Clear
12:55 AM 32.0 °F 27.5 °F 21.2 °F 64% 30.22 in 10.0 mi North 4.6 mph - N/A   Clear
1:15 AM 30.2 °F - 23.0 °F 75% 30.20 in 10.0 mi Calm Calm - N/A   Clear
1:35 AM 28.4 °F 22.2 °F 23.0 °F 80% 30.21 in 10.0 mi NNW 5.8 mph - N/A   Clear
1:55 AM 28.4 °F 24.6 °F 23.0 °F 80% 30.22 in 10.0 mi NNW 3.5 mph - N/A   Clear
2:15 AM 28.4 °F 22.2 °F 23.0 °F 80% 30.22 in 10.0 mi North 5.8 mph - N/A   Clear
2:35 AM 28.4 °F - 23.0 °F 80% 30.22 in 10.0 mi Calm Calm - N/A   Clear
2:55 AM 26.6 °F 19.1 °F 23.0 °F 86% 30.23 in 10.0 mi North 6.9 mph - N/A   Clear
3:15 AM 26.6 °F 19.1 °F 23.0 °F 86% 30.24 in 10.0 mi North 6.9 mph - N/A   Clear
3:35 AM 28.4 °F - 21.2 °F 74% 30.24 in 10.0 mi Calm Calm - N/A   Clear
3:55 AM 26.6 °F - 21.2 °F 80% 30.25 in 10.0 mi Calm Calm - N/A   Clear
4:15 AM 26.6 °F - 21.2 °F 80% 30.25 in 10.0 mi Calm Calm - N/A   Clear
4:35 AM 26.6 °F - 21.2 °F 80% 30.25 in 10.0 mi Calm Calm - N/A   Clear
4:55 AM 26.6 °F - 21.2 °F 80% 30.25 in 10.0 mi Calm Calm - N/A   Clear
5:15 AM 24.8 °F - 19.4 °F 80% 30.25 in 10.0 mi Calm Calm - N/A   Clear
5:35 AM 26.6 °F 21.2 °F 21.2 °F 80% 30.26 in 10.0 mi North 4.6 mph - N/A   Clear
5:55 AM 26.6 °F 20.0 °F 21.2 °F 80% 30.27 in 10.0 mi NNW 5.8 mph - N/A   Clear
6:35 AM 26.6 °F - 21.2 °F 80% 30.28 in 10.0 mi Calm Calm - N/A   Clear
6:55 AM 26.6 °F - 21.2 °F 80% 30.28 in 10.0 mi Calm Calm - N/A   Clear
7:15 AM 24.8 °F - 19.4 °F 80% 30.29 in 10.0 mi Calm Calm - N/A   Clear
7:35 AM 24.8 °F 20.5 °F 21.2 °F 86% 30.30 in 10.0 mi WNW 3.5 mph - N/A   Clear
7:55 AM 24.8 °F - 23.0 °F 93% 30.30 in 10.0 mi Calm Calm - N/A   Clear
8:15 AM 26.6 °F - 23.0 °F 86% 30.31 in 10.0 mi Calm Calm - N/A   Clear
8:35 AM 28.4 °F 24.6 °F 24.8 °F 86% 30.32 in 10.0 mi WNW 3.5 mph - N/A   Clear
8:55 AM 32.0 °F - 21.2 °F 64% 30.33 in 10.0 mi Calm Calm - N/A   Clear
9:15 AM 32.0 °F - 21.2 °F 64% 30.34 in 10.0 mi Calm Calm - N/A   Clear
9:35 AM 33.8 °F - 21.2 °F 60% 30.35 in 10.0 mi Calm Calm - N/A   Clear
9:55 AM 33.8 °F 30.8 °F 23.0 °F 65% 30.35 in 10.0 mi SSE 3.5 mph - N/A   Clear
10:15 AM 35.6 °F - 21.2 °F 56% 30.36 in 10.0 mi Calm Calm - N/A   Clear
10:35 AM 35.6 °F 32.8 °F 21.2 °F 56% 30.36 in 10.0 mi ESE 3.5 mph - N/A   Clear
10:55 AM 37.4 °F 32.1 °F 23.0 °F 56% 30.36 in 10.0 mi ESE 6.9 mph - N/A   Clear
11:15 AM 37.4 °F 32.1 °F 24.8 °F 60% 30.35 in 10.0 mi SE 6.9 mph - N/A   Clear
11:35 AM 37.4 °F 32.1 °F 24.8 °F 60% 30.35 in 10.0 mi ESE 6.9 mph - N/A   Clear
11:55 AM 39.2 °F 35.9 °F 24.8 °F 56% 30.34 in 10.0 mi East 4.6 mph - N/A   Clear
12:35 PM 39.2 °F 34.2 °F 23.0 °F 52% 30.33 in 10.0 mi East 6.9 mph - N/A   Clear
12:55 PM 41.0 °F 37.1 °F 24.8 °F 53% 30.32 in 10.0 mi East 5.8 mph - N/A   Clear
1:15 PM 41.0 °F 37.1 °F 24.8 °F 53% 30.32 in 10.0 mi ESE 5.8 mph - N/A   Clear
1:35 PM 42.8 °F 38.6 °F 24.8 °F 49% 30.32 in 10.0 mi ESE 6.9 mph - N/A   Clear
1:55 PM 41.0 °F 38.0 °F 24.8 °F 53% 30.31 in 10.0 mi SE 4.6 mph - N/A   Clear
2:15 PM 42.8 °F 38.6 °F 24.8 °F 49% 30.32 in 10.0 mi East 6.9 mph - N/A   Clear
2:35 PM 42.8 °F 38.6 °F 24.8 °F 49% 30.32 in 10.0 mi ENE 6.9 mph - N/A   Clear
2:55 PM 42.8 °F 38.0 °F 24.8 °F 49% 30.33 in 10.0 mi East 8.1 mph - N/A   Clear
3:15 PM 41.0 °F 35.2 °F 24.8 °F 53% 30.33 in 10.0 mi ENE 9.2 mph - N/A   Clear
3:35 PM 41.0 °F 36.4 °F 24.8 °F 53% 30.33 in 10.0 mi East 6.9 mph - N/A   Clear
3:55 PM 41.0 °F 37.1 °F 23.0 °F 49% 30.33 in 10.0 mi ESE 5.8 mph - N/A   Clear
4:15 PM 39.2 °F 35.9 °F 24.8 °F 56% 30.33 in 10.0 mi ESE 4.6 mph - N/A   Clear
4:35 PM 37.4 °F 32.1 °F 26.6 °F 65% 30.32 in 10.0 mi East 6.9 mph - N/A   Clear
4:55 PM 35.6 °F 29.9 °F 24.8 °F 65% 30.33 in 10.0 mi East 6.9 mph - N/A   Clear
5:15 PM 35.6 °F - 24.8 °F 65% 30.34 in 10.0 mi Calm Calm - N/A   Clear
5:35 PM 35.6 °F - 23.0 °F 60% 30.34 in 10.0 mi Calm Calm - N/A   Clear
5:55 PM 32.0 °F - 24.8 °F 75% 30.35 in 10.0 mi Calm Calm - N/A   Clear
6:35 PM 32.0 °F 28.7 °F 24.8 °F 75% 30.37 in 10.0 mi NNW 3.5 mph - N/A   Clear
6:55 PM 30.2 °F 23.4 °F 24.8 °F 80% 30.37 in 10.0 mi North 6.9 mph - N/A   Clear
7:15 PM 30.2 °F 25.4 °F 24.8 °F 80% 30.39 in 10.0 mi North 4.6 mph - N/A   Clear
7:35 PM 28.4 °F 23.3 °F 24.8 °F 86% 30.39 in 10.0 mi North 4.6 mph - N/A   Clear
7:55 PM 28.4 °F 24.6 °F 24.8 °F 86% 30.40 in 10.0 mi NW 3.5 mph - N/A   Clear
8:15 PM 30.2 °F - 24.8 °F 80% 30.39 in 10.0 mi Calm Calm - N/A   Clear
8:35 PM 32.0 °F - 24.8 °F 75% 30.39 in 10.0 mi Calm Calm - N/A   Clear
8:55 PM 30.2 °F 26.7 °F 24.8 °F 80% 30.39 in 10.0 mi North 3.5 mph - N/A   Clear
9:15 PM 30.2 °F 25.4 °F 24.8 °F 80% 30.40 in 10.0 mi NNW 4.6 mph - N/A   Clear
9:35 PM 26.6 °F - 24.8 °F 93% 30.39 in 10.0 mi Calm Calm - N/A   Clear
9:55 PM 26.6 °F 21.2 °F 23.0 °F 86% 30.39 in 10.0 mi North 4.6 mph - N/A   Clear
10:15 PM 26.6 °F 21.2 °F 23.0 °F 86% 30.38 in 10.0 mi North 4.6 mph - N/A   Clear
10:35 PM 28.4 °F 23.3 °F 23.0 °F 80% 30.39 in 10.0 mi North 4.6 mph - N/A   Clear
10:55 PM 26.6 °F - 23.0 °F 86% 30.38 in 10.0 mi Calm Calm - N/A   Clear
11:15 PM 24.8 °F - 23.0 °F 93% 30.38 in 10.0 mi Calm Calm - N/A   Clear
11:55 PM 26.6 °F - 23.0 °F 86% 30.38 in 10.0 mi Calm Calm - N/A   Clear